Overview Statistics Trail Chart Weather Telemetry Raw packets
 

This is the latest recevied weather packets stored in our database for station/object WX0ABE-13. If no packets are shown the sender has not sent any weather packets the latest 10 day(s).

<< 107 108 109 110 111 112 113 >>
Time Temp. Humidity Pressure Rain* Wind** Luminosity Snow
1787559374 22.78° C 59% 1017.2 hPa 0 mm - 0 W/m² -
1787559073 22.78° C 59% 1017.2 hPa 0 mm - 0 W/m² -
1787558769 22.78° C 59% 1017.2 hPa 0 mm - 0 W/m² -
1787558465 22.78° C 58% 1017.2 hPa 0 mm - 0 W/m² -
1787558160 23.33° C 57% 1017.3 hPa 0 mm - 0 W/m² -
1787557859 23.33° C 56% 1017.2 hPa 0 mm - 0 W/m² -
1787557557 23.33° C 56% 1017.5 hPa 0 mm - 0 W/m² -
1787557253 23.33° C 55% 1017.3 hPa 0 mm - 0 W/m² -
1787557040 23.33° C 55% 1017.3 hPa 0 mm - 0 W/m² -
1787556646 23.33° C 56% 1017.3 hPa 0 mm - 0 W/m² -
1787556345 23.33° C 59% 1017.4 hPa 0 mm - 0 W/m² -
1787556042 22.78° C 62% 1017.3 hPa 0 mm - 0 W/m² -
1787555742 22.78° C 62% 1017.3 hPa 0 mm - 0 W/m² -
1787555441 23.33° C 62% 1017.4 hPa 0 mm - 0 W/m² -
1787555137 23.33° C 60% 1017.4 hPa 0 mm - 0 W/m² -
1787554832 23.33° C 61% 1017.2 hPa 0 mm - 0 W/m² -
1787554529 22.78° C 63% 1017.4 hPa 0 mm - 0 W/m² -
1787554227 22.78° C 63% 1017.3 hPa 0 mm - 0 W/m² -
1787553923 22.78° C 62% 1017.1 hPa 0 mm - 0 W/m² -
1787553618 23.33° C 60% 1017.3 hPa 0 mm - 0 W/m² -
1787553314 23.33° C 59% 1017 hPa 0 mm - 0 W/m² -
1787553011 23.33° C 59% 1017.1 hPa 0 mm - 0 W/m² -
1787552707 23.33° C 58% 1017.1 hPa 0 mm - 0 W/m² -
1787552403 23.89° C 56% 1017.1 hPa 0 mm - 0 W/m² -
1787552098 23.89° C 56% 1017.1 hPa 0 mm - 0 W/m² -

* Rain latest hour (hover to see other rain measurements)
** Current wind speed in m/s (hover to see current wind gust speed)